| time (UTC) | temp C | wind direction | speed KPH | gust KPH | rain 1hr cm | rain 24hr cm | rain mn cm | humidity % | barometer mb |
| 20260906092828 | 22 | 254 | 4.8 | 6.4 | 0.00 | 0.00 | 0.00 | 80 | 1023.5 |
| 20260906092327 | 22 | 257 | 3.2 | 6.4 | 0.00 | 0.00 | 0.00 | 81 | 1023.2 |
| 20260906091836 | 21 | 259 | 3.2 | 6.4 | 0.00 | 0.00 | 0.00 | 81 | 1023.1 |
| 20260906091318 | 21 | 252 | 3.2 | 6.4 | 0.00 | 0.00 | 0.00 | 81 | 1023.2 |
| 20260906090822 | 21 | 244 | 1.6 | 4.8 | 0.00 | 0.00 | 0.00 | 81 | 1023.0 |
| 20260906085820 | 21 | 244 | 3.2 | 6.4 | 0.00 | 0.00 | 0.00 | 80 | 1023.0 |
| 20260906085325 | 21 | 240 | 3.2 | 6.4 | 0.00 | 0.00 | 0.00 | 80 | 1022.9 |
| 20260906084830 | 21 | 265 | 3.2 | 6.4 | 0.00 | 0.00 | 0.00 | 79 | 1022.9 |
| 20260906084324 | 22 | 270 | 4.8 | 6.4 | 0.00 | 0.00 | 0.00 | 78 | 1023.0 |
| 20260906083838 | 22 | 279 | 1.6 | 4.8 | 0.00 | 0.00 | 0.00 | 78 | 1022.9 |
| 20260906083313 | 22 | 290 | 3.2 | 4.8 | 0.00 | 0.00 | 0.00 | 77 | 1022.9 |
| 20260906082901 | 22 | 360 | 1.6 | 4.8 | 0.00 | 0.00 | 0.00 | 76 | 1022.9 |
| 20260906082325 | 23 | 268 | 0.0 | 0.0 | 0.00 | 0.00 | 0.00 | 76 | 1022.9 |
| 20260906081820 | 23 | 282 | 0.0 | 0.0 | 0.00 | 0.00 | 0.00 | 78 | 1022.9 |
| 20260906081319 | 23 | 282 | 0.0 | 0.0 | 0.00 | 0.00 | 0.00 | 79 | 1022.9 |
| 20260906080838 | 23 | 282 | 0.0 | 0.0 | 0.00 | 0.00 | 0.00 | 80 | 1022.9 |
| 20260906080329 | 22 | 282 | 0.0 | 0.0 | 0.00 | 0.00 | 0.00 | 80 | 1023.0 |
| 20260906075831 | 22 | 282 | 0.0 | 0.0 | 0.00 | 0.00 | 0.00 | 80 | 1022.8 |
| 20260906075327 | 22 | 282 | 0.0 | 0.0 | 0.00 | 0.00 | 0.00 | 80 | 1022.8 |
| 20260906074826 | 22 | 284 | 0.0 | 0.0 | 0.00 | 0.00 | 0.00 | 80 | 1022.8 |
| 20260906063328 | 20 | 105 | 3.2 | 12.9 | 0.00 | 0.00 | 0.00 | 87 | 1022.2 |
| 20260906062336 | 20 | 40 | 6.4 | 12.9 | 0.00 | 0.00 | 0.00 | 87 | 1022.2 |
| 20260906060835 | 20 | 51 | 6.4 | 14.5 | 0.00 | 0.00 | 0.00 | 87 | 1022.0 |
| 20260906052411 | 20 | 76 | 6.4 | 17.7 | 0.00 | 0.00 | 0.00 | 87 | 1021.7 |
| 20260906044848 | 20 | 360 | 9.7 | 16.1 | 0.00 | 0.00 | 0.00 | 85 | 1021.6 |
| 20260906044331 | 20 | 360 | 8.0 | 16.1 | 0.00 | 0.00 | 0.00 | 85 | 1021.6 |
| 20260906043827 | 20 | 78 | 6.4 | 12.9 | 0.00 | 0.00 | 0.00 | 85 | 1021.6 |
| 20260906043526 | 20 | 95 | 4.8 | 14.5 | 0.00 | 0.00 | 0.00 | 85 | 1021.6 |
| 20260906043401 | 20 | 95 | 4.8 | 14.5 | 0.00 | 0.00 | 0.00 | 85 | 1021.6 |
| 20260906023845 | 21 | 194 | 0.0 | 4.8 | 0.00 | 0.00 | 0.00 | 82 | 1021.2 |
| 20260906023321 | 21 | 194 | 1.6 | 6.4 | 0.00 | 0.00 | 0.00 | 83 | 1021.2 |
| 20260906022823 | 21 | 194 | 3.2 | 6.4 | 0.00 | 0.00 | 0.00 | 83 | 1021.3 |
| 20260906022317 | 21 | 190 | 1.6 | 4.8 | 0.00 | 0.00 | 0.00 | 82 | 1021.3 |
| 20260906021819 | 21 | 244 | 0.0 | 4.8 | 0.00 | 0.00 | 0.00 | 82 | 1021.4 |
| 20260906021315 | 21 | 244 | 0.0 | 4.8 | 0.00 | 0.00 | 0.00 | 82 | 1021.5 |
| 20260906020839 | 21 | 272 | 0.0 | 3.2 | 0.00 | 0.00 | 0.00 | 82 | 1021.5 |
| 20260906014912 | 21 | 272 | 0.0 | 1.6 | 0.00 | 0.00 | 0.00 | 81 | 1021.5 |
| 20260906014323 | 21 | 272 | 0.0 | 1.6 | 0.00 | 0.00 | 0.00 | 81 | 1021.6 |
| 20260906013834 | 21 | 272 | 0.0 | 1.6 | 0.00 | 0.00 | 0.00 | 81 | 1021.6 |
| 20260906013320 | 21 | 272 | 0.0 | 4.8 | 0.00 | 0.00 | 0.00 | 81 | 1021.6 |
| 20260906012335 | 21 | 360 | 1.6 | 4.8 | 0.00 | 0.00 | 0.00 | 81 | 1021.7 |
| 20260906001904 | 21 | 273 | 0.0 | 3.2 | 0.00 | 0.00 | 0.00 | 86 | 1022.2 |
| 20260906000929 | 21 | 275 | 1.6 | 4.8 | 0.00 | 0.00 | 0.00 | 86 | 1022.3 |
| 20260905225923 | 21 | 267 | 0.0 | 4.8 | 0.00 | 0.00 | 0.00 | 84 | 1022.2 |
| 20260905172321 | 28 | 264 | 3.2 | 12.9 | 0.00 | 0.00 | 0.00 | 58 | 1019.9 |
| 20260905171325 | 28 | 360 | 6.4 | 9.7 | 0.00 | 0.00 | 0.00 | 55 | 1019.9 |
| 20260905170833 | 28 | 360 | 4.8 | 9.7 | 0.00 | 0.00 | 0.00 | 54 | 1019.8 |
| 20260905170323 | 28 | 360 | 4.8 | 9.7 | 0.00 | 0.00 | 0.00 | 57 | 1019.8 |
| 20260905165833 | 27 | 360 | 4.8 | 14.5 | 0.00 | 0.00 | 0.00 | 59 | 1019.7 |
| 20260905165347 | 27 | 360 | 4.8 | 14.5 | 0.00 | 0.00 | 0.00 | 62 | 1019.8 |
| 20260905164836 | 27 | 360 | 4.8 | 12.9 | 0.00 | 0.00 | 0.00 | 66 | 1019.8 |
| 20260905163831 | 26 | 360 | 8.0 | 16.1 | 0.00 | 0.00 | 0.00 | 67 | 1019.6 |
| 20260905163329 | 26 | 360 | 4.8 | 12.9 | 0.00 | 0.00 | 0.00 | 70 | 1019.7 |
| 20260905162834 | 26 | 360 | 3.2 | 14.5 | 0.00 | 0.00 | 0.00 | 70 | 1019.7 |
| 20260905162314 | 26 | 360 | 4.8 | 9.7 | 0.00 | 0.00 | 0.00 | 68 | 1019.5 |
| 20260905161855 | 27 | 360 | 4.8 | 6.4 | 0.00 | 0.00 | 0.00 | 66 | 1019.4 |
| 20260905161330 | 27 | 360 | 3.2 | 6.4 | 0.00 | 0.00 | 0.00 | 66 | 1019.3 |
| 20260905160833 | 27 | 242 | 1.6 | 6.4 | 0.00 | 0.00 | 0.00 | 65 | 1019.4 |
| 20260905160328 | 27 | 360 | 3.2 | 12.9 | 0.00 | 0.00 | 0.00 | 64 | 1019.4 |
| 20260905155829 | 28 | 360 | 6.4 | 12.9 | 0.00 | 0.00 | 0.00 | 61 | 1019.3 |
| 20260905155332 | 28 | 360 | 8.0 | 12.9 | 0.00 | 0.00 | 0.00 | 57 | 1019.3 |
| 20260905154847 | 29 | 360 | 6.4 | 12.9 | 0.00 | 0.00 | 0.00 | 57 | 1019.3 |
| 20260905153819 | 29 | 254 | 6.4 | 12.9 | 0.00 | 0.00 | 0.00 | 56 | 1019.2 |
| 20260905153321 | 29 | 360 | 6.4 | 14.5 | 0.00 | 0.00 | 0.00 | 56 | 1019.3 |
| 20260905152839 | 28 | 360 | 6.4 | 14.5 | 0.00 | 0.00 | 0.00 | 57 | 1019.4 |
| 20260905152318 | 28 | 360 | 6.4 | 14.5 | 0.00 | 0.00 | 0.00 | 59 | 1019.6 |
| 20260905151821 | 27 | 360 | 6.4 | 14.5 | 0.00 | 0.00 | 0.00 | 62 | 1019.6 |
| 20260905151320 | 27 | 360 | 6.4 | 12.9 | 0.00 | 0.00 | 0.00 | 65 | 1019.8 |
| 20260905143818 | 28 | 360 | 3.2 | 6.4 | 0.00 | 0.00 | 0.00 | 66 | 1019.8 |
| 20260905143351 | 28 | 360 | 0.0 | 3.2 | 0.00 | 0.00 | 0.00 | 64 | 1019.7 |
| 20260905142839 | 28 | 240 | 0.0 | 0.0 | 0.00 | 0.00 | 0.00 | 65 | 1019.8 |
| 20260905141323 | 28 | 240 | 0.0 | 0.0 | 0.00 | 0.00 | 0.00 | 68 | 1019.8 |
| 20260905140855 | 28 | 240 | 0.0 | 0.0 | 0.00 | 0.00 | 0.00 | 66 | 1019.8 |
| 20260905140317 | 28 | 240 | 0.0 | 0.0 | 0.00 | 0.00 | 0.00 | 64 | 1019.9 |
| 20260905135824 | 28 | 238 | 0.0 | 0.0 | 0.00 | 0.00 | 0.00 | 67 | 1019.8 |
| 20260905135324 | 27 | 238 | 0.0 | 0.0 | 0.00 | 0.00 | 0.00 | 67 | 1020.0 |
| 20260905134833 | 27 | 238 | 0.0 | 3.2 | 0.00 | 0.00 | 0.00 | 72 | 1019.9 |
| 20260905134433 | 27 | 238 | 0.0 | 4.8 | 0.00 | 0.00 | 0.00 | 70 | 1019.9 |
| 20260905134352 | 27 | 238 | 0.0 | 4.8 | 0.00 | 0.00 | 0.00 | 70 | 1019.9 |
| 20260905133900 | 27 | 238 | 1.6 | 4.8 | 0.00 | 0.00 | 0.00 | 71 | 1020.1 |
| 20260905133327 | 27 | 242 | 3.2 | 8.0 | 0.00 | 0.00 | 0.00 | 68 | 1020.1 |
| 20260905132817 | 27 | 244 | 4.8 | 11.3 | 0.00 | 0.00 | 0.00 | 65 | 1020.3 |
| 20260905132333 | 27 | 360 | 6.4 | 11.3 | 0.00 | 0.00 | 0.00 | 64 | 1020.3 |
| 20260905131815 | 26 | 360 | 6.4 | 9.7 | 0.00 | 0.00 | 0.00 | 65 | 1020.3 |
| 20260905125830 | 26 | 253 | 3.2 | 8.0 | 0.00 | 0.00 | 0.00 | 67 | 1020.2 |
| 20260905124955 | 26 | 257 | 3.2 | 6.4 | 0.00 | 0.00 | 0.00 | 67 | 1020.4 |
| 20260905124854 | 26 | 257 | 3.2 | 6.4 | 0.00 | 0.00 | 0.00 | 67 | 1020.4 |
| 20260905123904 | 26 | 236 | 1.6 | 4.8 | 0.00 | 0.00 | 0.00 | 66 | 1020.4 |
| 20260905123436 | 26 | 236 | 3.2 | 4.8 | 0.00 | 0.00 | 0.00 | 67 | 1020.4 |
| 20260905123343 | 26 | 236 | 3.2 | 4.8 | 0.00 | 0.00 | 0.00 | 67 | 1020.4 |
| 20260905122833 | 26 | 236 | 3.2 | 4.8 | 0.00 | 0.00 | 0.00 | 65 | 1020.5 |
| 20260905122345 | 26 | 236 | 3.2 | 4.8 | 0.00 | 0.00 | 0.00 | 65 | 1020.5 |
| 20260905121822 | 26 | 232 | 3.2 | 4.8 | 0.00 | 0.00 | 0.00 | 66 | 1020.4 |
| 20260905121321 | 26 | 233 | 3.2 | 4.8 | 0.00 | 0.00 | 0.00 | 68 | 1020.5 |
| 20260905120815 | 25 | 232 | 3.2 | 4.8 | 0.00 | 0.00 | 0.00 | 69 | 1020.5 |
| 20260905120316 | 25 | 244 | 3.2 | 4.8 | 0.00 | 0.00 | 0.00 | 70 | 1020.5 |
| 20260905115411 | 25 | 243 | 1.6 | 4.8 | 0.00 | 0.00 | 0.00 | 74 | 1020.5 |
| 20260905115339 | 25 | 243 | 1.6 | 4.8 | 0.00 | 0.00 | 0.00 | 74 | 1020.5 |
| 20260905115006 | 25 | 244 | 3.2 | 4.8 | 0.00 | 0.00 | 0.00 | 75 | 1020.4 |
| 20260905114853 | 25 | 244 | 3.2 | 4.8 | 0.00 | 0.00 | 0.00 | 75 | 1020.4 |
| 20260905113823 | 25 | 248 | 1.6 | 4.8 | 0.00 | 0.00 | 0.00 | 73 | 1020.5 |
| 20260905113345 | 25 | 248 | 3.2 | 6.4 | 0.00 | 0.00 | 0.00 | 75 | 1020.5 |
| 20260905112825 | 24 | 360 | 4.8 | 6.4 | 0.00 | 0.00 | 0.00 | 73 | 1020.5 |
| 20260905112338 | 25 | 235 | 3.2 | 4.8 | 0.00 | 0.00 | 0.00 | 74 | 1020.6 |
| 20260905111833 | 25 | 240 | 1.6 | 4.8 | 0.00 | 0.00 | 0.00 | 76 | 1020.4 |
| 20260905110826 | 25 | 241 | 1.6 | 4.8 | 0.00 | 0.00 | 0.00 | 76 | 1020.6 |
| 20260905110349 | 25 | 240 | 3.2 | 4.8 | 0.00 | 0.00 | 0.00 | 75 | 1020.6 |
| 20260905105840 | 25 | 240 | 1.6 | 4.8 | 0.00 | 0.00 | 0.00 | 74 | 1020.6 |
| 20260905105407 | 25 | 240 | 3.2 | 4.8 | 0.00 | 0.00 | 0.00 | 72 | 1020.6 |
| 20260905104848 | 26 | 240 | 3.2 | 4.8 | 0.00 | 0.00 | 0.00 | 69 | 1020.5 |
| 20260905104326 | 26 | 242 | 1.6 | 3.2 | 0.00 | 0.00 | 0.00 | 69 | 1020.5 |
| 20260905101818 | 24 | 250 | 0.0 | 3.2 | 0.00 | 0.00 | 0.00 | 75 | 1020.6 |
| 20260905101340 | 23 | 250 | 0.0 | 6.4 | 0.00 | 0.00 | 0.00 | 77 | 1020.7 |
| 20260905100856 | 23 | 250 | 3.2 | 6.4 | 0.00 | 0.00 | 0.00 | 76 | 1020.7 |
| 20260905100315 | 23 | 360 | 3.2 | 6.4 | 0.00 | 0.00 | 0.00 | 77 | 1020.7 |
| 20260905095846 | 23 | 270 | 3.2 | 6.4 | 0.00 | 0.00 | 0.00 | 77 | 1020.7 |
| 20260905095331 | 23 | 275 | 6.4 | 6.4 | 0.00 | 0.00 | 0.00 | 76 | 1020.7 |
| 20260905094818 | 23 | 264 | 0.0 | 0.0 | 0.00 | 0.00 | 0.00 | 77 | 1020.6 |
| 20260905094316 | 23 | 265 | 0.0 | 0.0 | 0.00 | 0.00 | 0.00 | 77 | 1020.6 |
| 20260905093902 | 23 | 265 | 0.0 | 1.6 | 0.00 | 0.00 | 0.00 | 77 | 1020.6 |